CAPE
0 0 0 0 0 0 0 0 0 0 0 0 0 0 0 0 0 0 0 0 0 0 0 0 0 0 0 0 0 0 0 0 0 0 0 0 0 0 0 0 0 0 0 0
0 0 0 0 0 0 0 0 0 0 0 0 0 0 0 0 0 0 0 0 0 0 0 0 0 0 0 0 0 0 0 0 0 0 0 0 0 0 0 0 0 0 0 0
0 0 0 0 0 0 0 0 0 0 0 0 0 0 0 0 0 0 0 0 0 0 0 0 0 0 0 0 0 0 0 0 0 0 0 0 0 0 0 0 0 0 0 0
0 0 0 0 0 0 0 0 0 0 0 0 0 0 0 0 0 0 0 0 0 0 0 0 0 0 0 0 0 0 0 0 0 0 0 0 0 0 0 0 0 0 0 0
0 0 0 0 0 0 0 0 0 0 0 0 0 0 0 0 0 0 0 0 0 0 0 0 0 0 0 0 0 0 0 0 0 0 0 0 0 0 0 0 0 0 0 0
0 0 0 0 0 0 0 0 0 0 0 0 0 0 0 0 0 0 0 0 0 0 0 0 0 0 0 0 0 0 0 0 0 0 0 0 0 0 0 0 0 0 0 0
0 0 0 0 0 0 0 0 0 0 0 0 0 0 0 0 0 0 0 0 0 0 0 0 0 0 0 0 0 0 0 0 0 0 0 0 0 0 0 0 0 0 0 0
0 0 0 0 0 0 0 0 0 0 0 0 0 0 0 0 0 0 0 0 0 0 0 0 0 0 0 0 0 0 0 0 0 0 0 0 0 0 0 0 0 0 0 0
0 0 0 0 0 0 0 0 0 0 0 0 0 0 0 0 0 0 0 0 0 0 0 0 0 0 0 0 0 0 0 0 0 0 0 0 0 0 0 0 0 0 0 0
0 1 0 0 0 0 0 0 0 0 0 0 0 0 0 0 0 0 0 0 0 0 0 0 0 0 0 0 0 0 0 0 0 0 0 0 0 0 0 0 0 0 0 0
0 9 0 0 0 0 0 0 0 0 0 2 2 7 0 0 1 27 1 0 0 0 0 0 0 0 0 0 0 0 0 0 0 0 0 0 0 0 0 0 0 0 0 0
0 3 0 0 0 0 0 0 0 5 6 0 9 1 0 0 0 13 15 2 0 0 0 0 0 0 0 0 0 0 0 0 0 0 0 0 0 0 0 0 0 0 0 0
16 17 23 0 0 0 0 0 0 0 0 2 34 14 106 152 110 88 32 0 0 0 0 0 0 0 0 0 0 0 0 0 0 0 0 0 0 0 0 0 0 0 0 0
16 47 45 33 19 5 7 0 0 0 11 0 0 0 0 4 63 74 108 3 0 3 0 8 0 0 0 0 0 0 0 0 0 0 0 0 0 0 0 0 0 0 0 0
4 8 8 2 3 0 0 0 0 0 0 9 0 0 0 2 5 0 0 0 8 1 3 10 0 0 0 0 6 0 0 0 0 0 0 0 0 0 0 0 0 0 0 0
6 8 5 0 0 0 0 0 0 0 0 0 0 0 0 0 0 0 0 0 0 0 0 0 0 0 0 0 0 0 0 0 0 0 0 0 0 0 0 0 0 0 0 0
0 6 13 0 0 0 0 0 0 0 0 2 14 0 1 0 0 0 0 0 0 0 0 0 0 0 0 0 0 0 0 0 0 0 0 0 0 0 0 0 0 0 0 0
0 2 18 5 2 1 0 0 9 28 0 3 0 0 0 0 0 0 0 11 1 0 0 11 0 0 0 0 0 0 0 0 0 0 0 0 0 0 0 0 0 0 0 0
0 9 0 5 1 0 0 0 1 3 0 0 0 0 0 0 0 0 0 0 0 0 0 0 0 0 0 0 0 0 0 0 0 0 0 0 0 0 0 0 0 0 0 0
0 0 0 1 2 13 12 1 2 1 0 0 49 24 0 0 12 0 0 0 0 0 0 0 0 0 0 0 0 0 0 0 0 0 0 0 0 0 0 0 0 0 0 0
0 0 0 5 7 0 3 1 1 33 4 4 0 0 1 2 0 0 0 0 0 0 0 0 0 0 0 0 0 0 0 0 0 0 0 0 0 0 0 0 0 0 0 0
0 3 0 0 1 0 0 0 3 7 0 6 0 0 0 0 0 0 0 0 0 0 0 0 0 0 0 0 0 0 0 0 0 0 0 0 0 0 1 0 0 0 0 0
4 0 0 15 0 0 0 3 2 6 10 0 0 0 0 0 0 0 0 0 0 0 0 0 0 0 0 0 0 0 0 0 0 0 0 0 0 0 0 0 0 0 0 0
0 0 2 7 0 0 0 0 5 0 0 0 0 0 0 0 0 0 0 0 0 0 0 0 0 0 0 0 0 0 0 0 0 0 0 1 0 1 0 0 0 0 0 0
0 0 0 0 0 2 0 0 0 0 0 0 0 0 0 0 0 0 0 0 0 0 0 0 0 0 0 0 0 2 0 0 0 0 1 0 0 0 0 0 0 0 0 0
0 1 4 1 5 19 0 0 0 0 0 0 0 0 0 0 0 0 0 0 0 0 0 0 0 0 0 0 0 0 0 0 0 0 0 0 0 0 0 0 1 0 0 0
CIN
0 0 0 0 0 0 0 0 0 0 0 0 0 0 0 0 0 0 0 0 0 0 0 0 0 0 0 0 0 0 0 0 0 0 0 0 0 0 0 0 0 0 0 0
0 0 0 0 0 0 0 0 0 0 0 0 0 0 0 0 0 0 0 0 0 0 0 0 0 0 0 0 0 0 0 0 0 0 0 0 0 0 0 0 0 0 0 0
0 0 0 0 0 0 0 0 0 0 0 0 0 0 0 0 0 0 0 0 0 0 0 0 0 0 0 0 0 0 0 0 0 0 0 0 0 0 0 0 0 0 0 0
0 0 0 0 0 0 0 0 0 0 0 0 0 0 0 0 0 0 0 0 0 0 0 0 0 0 0 0 0 0 0 0 0 0 0 0 0 0 0 0 0 0 0 0
0 0 0 0 0 0 0 0 0 0 0 0 0 0 0 0 0 0 0 0 0 0 0 0 0 0 0 0 0 0 0 0 0 0 0 0 0 0 0 0 0 0 0 0
0 0 0 0 0 0 0 0 0 0 0 0 0 0 0 0 0 0 0 0 0 0 0 0 0 0 0 0 0 0 0 0 0 0 0 0 0 0 0 0 0 0 0 0
0 0 0 0 0 0 0 0 0 0 0 0 0 0 0 0 0 0 0 0 0 0 0 0 0 0 0 0 0 0 0 0 0 0 0 0 0 0 0 0 0 0 0 0
0 0 0 0 0 0 0 0 0 0 0 0 0 0 0 0 0 0 0 0 0 0 0 0 0 0 0 0 0 0 0 0 0 0 0 0 0 0 0 0 0 0 0 0
0 0 0 0 0 0 0 0 0 0 0 0 0 0 0 0 0 0 0 0 0 0 0 0 0 0 0 0 0 0 0 0 0 0 0 0 0 0 0 0 0 0 0 0
0 0 0 0 0 0 0 0 0 0 0 0 0 0 0 0 0 0 0 0 0 0 0 0 0 0 0 0 0 0 0 0 0 0 0 0 0 0 0 0 0 0 0 0
0 0 0 0 0 0 0 0 0 0 0 -1 -2 -6 0 -6 -23 -159 -175 0 0 0 0 0 0 0 0 0 0 0 0 0 0 0 0 0 0 0 0 0 0 0 0 0
0 -3 -1 0 0 0 0 0 0 -13 -6 0 -7 -22 0 0 0 -125 -202 -122 0 0 0 0 0 0 0 0 0 0 0 0 0 0 0 0 0 0 0 0 0 0 0 0
-2 -2 0 0 0 0 0 0 0 0 0 -17 -3 -18 -39 -76 -84 -102 -84 0 0 0 0 0 0 0 0 0 0 0 0 0 0 0 0 0 0 0 0 0 0 0 0 0
-9 -1 -1 -1 -2 -16 -8 0 0 0 -19 0 0 -1 0 -58 -70 -79 -44 -81 0 -151 0 -160 0 0 0 0 0 0 0 0 0 0 0 0 0 0 0 0 0 0 0 0
-4 -2 -5 -1 -2 0 0 0 0 0 0 -3 0 0 0 -50 -100 0 0 0 -203 -26 -137 -142 0 0 0 0 -1 0 0 0 0 0 0 0 0 0 0 0 0 0 0 0
-3 0 -1 -7 0 0 -67 0 0 0 0 0 0 0 0 0 0 0 0 0 0 0 0 0 0 0 0 0 0 0 0 0 0 0 0 0 0 0 0 0 0 0 0 0
0 -1 0 -9 -1 -2 0 0 0 0 -1 -4 -25 0 -103 0 0 0 0 0 0 0 0 0 0 0 0 0 0 0 0 0 0 0 0 0 0 0 0 0 0 0 0 0
0 0 -1 -2 -2 -1 0 0 -30 -9 -3 -27 0 0 0 0 0 0 0 -179 -38 0 -7 -86 0 0 0 0 0 0 0 0 0 0 0 0 0 0 0 0 0 0 0 0
0 0 0 -1 0 0 0 0 0 -10 0 0 0 0 0 0 0 0 0 0 0 0 0 0 0 0 0 0 0 0 0 0 0 0 0 0 0 0 0 0 0 0 0 0
0 -3 -1 0 -1 -1 -25 0 0 -10 0 0 -43 -85 0 0 -74 0 0 0 0 0 0 0 0 0 0 0 0 0 0 0 0 0 0 0 0 0 0 0 0 0 0 0
0 0 0 -1 -1 0 0 0 0 -15 -2 0 0 -12 -27 -96 0 0 0 0 0 0 0 0 0 0 0 0 0 0 0 0 0 0 0 0 0 0 0 0 0 0 0 0
0 -1 0 0 -3 0 0 0 0 0 0 -6 -14 -11 -30 0 0 0 0 0 0 0 0 0 0 0 0 0 0 0 0 0 0 0 0 0 0 0 0 0 0 0 0 0
0 0 0 -1 -1 0 0 0 0 0 0 0 0 0 0 0 0 0 0 0 0 0 0 0 0 0 0 0 0 0 0 0 0 0 0 0 0 0 0 0 0 0 0 0
0 -1 -4 -3 0 0 -2 0 0 -1 0 0 0 0 0 0 0 0 0 0 0 0 0 0 0 0 0 0 0 0 0 0 0 0 0 0 0 0 0 0 0 0 0 0
0 -1 0 0 0 0 0 0 0 0 0 0 0 0 0 0 0 0 0 0 0 0 0 0 0 0 0 0 0 0 0 0 0 0 0 0 0 0 0 0 0 0 0 0
0 -5 0 -2 -2 0 0 0 0 0 0 0 0 0 0 0 0 0 0 0 0 0 0 0 0 0 0 0 0 0 0 0 0 0 0 0 0 0 0 0 -1 0 0 0
Wind_Speed
1 1 12 11 8 3 2 4 6 12 10 4 13 20 16 11 9 9 10 9 12 16 15 14 14 16 15 13 14 15 14 13 12 9 8 5 4 4 3 4 6 7 7 7
2 10 15 5 6 8 6 7 10 6 8 6 6 21 13 9 16 10 10 10 11 6 7 11 15 17 19 18 15 15 16 16 12 10 4 5 6 2 3 3 5 6 7 7
9 8 5 8 6 6 5 5 5 10 3 5 6 19 6 7 5 8 11 7 5 11 13 12 14 18 16 17 18 18 17 17 13 11 9 7 6 4 3 4 5 3 5 6
7 6 5 4 6 5 4 10 7 5 5 5 6 11 32 2 11 10 9 8 10 9 8 12 15 14 17 17 16 17 17 16 12 13 9 16 9 8 3 4 4 5 7 7
8 3 3 4 7 6 10 8 8 4 5 5 15 4 18 5 7 7 7 10 11 9 10 15 17 18 12 10 13 14 16 15 14 12 11 9 9 4 6 5 8 6 5 6
7 2 3 6 7 7 6 4 4 4 5 9 30 10 19 16 7 1 6 9 10 11 9 8 9 10 13 11 13 15 17 14 14 12 11 10 12 10 10 7 7 6 4 4
4 6 4 3 8 2 1 4 4 4 2 11 7 9 19 17 11 6 10 10 10 8 7 8 13 14 13 16 17 16 15 13 13 12 11 10 11 11 13 12 8 9 5 3
4 19 2 7 5 5 4 5 4 8 14 17 16 9 9 6 5 2 5 8 6 6 4 7 10 13 15 17 16 16 16 14 13 14 13 10 11 7 7 8 7 5 4 6
7 11 11 10 5 6 5 4 5 10 15 14 17 20 14 21 18 8 8 7 8 7 4 4 4 4 8 12 13 15 16 13 14 14 13 11 11 11 8 8 6 5 6 5
8 12 3 5 8 8 11 4 7 3 10 19 11 17 13 6 5 5 7 5 6 4 3 4 5 7 8 9 8 9 8 11 14 13 10 10 13 13 11 9 8 8 6 6
6 5 16 11 1 4 9 10 10 12 11 11 13 7 3 4 7 7 3 4 5 6 4 2 3 7 8 7 10 10 11 9 9 8 10 11 10 11 12 11 10 9 7 8
8 5 11 26 21 13 11 16 13 8 12 15 19 17 10 16 18 7 4 2 3 2 6 8 7 7 8 11 11 12 12 15 15 13 12 11 11 11 11 10 11 11 9 7
7 2 8 12 11 2 4 6 17 19 16 15 13 6 5 4 5 7 6 7 11 9 7 4 5 7 7 7 6 10 11 10 12 13 12 11 11 11 10 11 11 10 10 9
11 7 12 15 20 18 20 20 21 19 15 22 22 28 23 20 16 11 11 17 13 12 12 8 6 8 12 11 8 9 9 10 10 11 13 13 13 12 12 12 12 12 10 11
3 12 13 16 17 21 23 25 26 27 26 25 28 29 27 22 17 23 18 15 11 13 13 11 10 8 10 13 13 11 8 12 13 12 12 12 12 11 13 12 12 12 10 9
5 14 15 17 19 22 24 24 27 26 30 30 28 31 25 22 18 15 16 16 12 15 11 9 10 8 11 12 13 12 10 12 12 14 14 13 13 13 13 13 12 12 9 9
11 10 15 20 16 16 19 24 23 19 23 20 20 20 18 17 11 9 9 8 10 6 9 10 6 5 10 14 16 17 16 14 15 14 13 14 15 14 13 13 12 12 11 9
13 17 12 16 11 23 16 10 12 11 18 13 13 16 18 13 6 5 6 5 6 7 6 2 3 4 9 13 15 12 17 16 16 15 15 14 15 15 13 14 14 13 11 12
7 11 6 8 13 22 18 11 9 2 13 10 10 10 6 2 1 4 3 5 3 4 5 3 1 2 6 9 12 16 15 15 17 17 17 16 17 17 16 15 14 12 11 10
10 7 5 6 7 7 4 18 23 12 11 12 10 12 5 3 2 5 2 2 2 3 3 6 7 5 2 4 11 14 14 14 15 16 17 16 16 16 16 15 14 11 10 11
11 5 3 7 5 9 9 22 17 4 4 13 9 7 3 2 3 5 1 2 3 3 5 4 3 5 5 5 8 9 11 12 12 14 14 15 15 14 13 12 11 11 11 11
6 5 3 4 4 8 16 23 8 14 13 14 12 5 6 8 7 4 5 4 5 6 5 2 2 2 3 6 10 10 11 11 13 15 15 14 15 13 12 13 10 11 11 11
5 5 4 4 7 23 26 20 20 18 15 14 10 13 6 7 6 6 6 5 6 6 5 2 3 5 4 7 8 11 12 15 16 15 15 15 15 13 14 14 13 10 11 10
5 3 6 11 6 15 20 25 16 13 15 19 12 13 7 9 8 7 7 7 6 4 4 2 5 4 4 4 6 7 12 14 15 15 15 14 13 13 12 9 10 10 10 10
7 9 9 11 17 18 16 15 20 23 23 17 15 8 9 5 11 7 6 8 6 5 4 4 6 5 6 7 8 10 12 14 14 14 13 12 11 12 11 9 10 10 10 11
6 6 4 9 13 12 20 24 25 20 18 19 15 14 14 7 9 6 7 6 6 6 5 5 6 7 7 8 10 11 13 14 15 13 11 10 10 10 9 9 8 10 13 16
Wind_Direction
331 138 237 219 207 224 248 248 265 266 273 277 265 278 279 282 289 267 253 244 228 216 228 189 180 176 177 176 174 167 150 157 150 149 142 134 143 133 111 106 123 122 129 130
38 233 252 196 210 234 244 272 271 285 260 177 273 272 264 245 265 255 253 247 230 216 199 188 183 184 183 178 176 167 163 160 161 159 165 121 138 109 113 112 120 135 130 134
172 228 108 176 241 196 209 204 229 245 292 241 256 284 269 235 245 261 251 253 232 207 203 194 189 195 184 182 178 173 164 161 164 154 122 109 100 90 118 138 127 112 110 112
220 256 221 185 211 186 225 221 239 247 3 279 130 290 300 191 233 232 258 258 267 232 210 199 200 191 188 188 178 172 163 166 164 159 151 161 167 157 140 149 133 129 128 127
245 246 256 261 233 174 262 199 212 223 243 334 275 206 270 61 278 271 258 253 259 257 205 204 200 200 191 171 169 168 165 166 158 162 163 158 148 121 126 132 128 120 116 120
235 304 217 222 234 206 273 271 217 218 142 247 262 188 274 270 261 164 259 261 267 267 232 210 192 172 172 157 164 165 167 163 161 156 157 161 146 143 141 146 142 134 116 117
312 234 232 270 294 204 218 48 308 294 180 244 292 202 237 275 306 242 288 272 269 290 249 186 178 178 170 171 167 164 168 164 165 155 150 148 149 155 158 155 157 145 137 126
292 300 74 344 50 315 268 194 197 270 279 287 292 253 252 260 321 121 334 320 331 343 301 207 200 180 171 171 169 162 164 156 156 155 155 150 144 156 159 158 152 139 137 139
343 267 334 0 34 25 341 287 283 281 271 269 264 281 279 277 275 339 6 2 339 339 12 127 130 157 167 170 170 167 163 164 166 166 152 152 149 148 159 147 127 129 121 128
43 302 96 347 336 263 211 312 302 251 273 262 252 255 260 336 320 340 356 3 5 2 17 121 132 149 170 175 169 145 148 182 168 161 163 161 161 153 146 149 142 129 127 116
346 225 286 326 354 351 304 280 269 287 262 273 281 257 245 273 265 223 204 45 63 74 64 305 185 176 164 159 150 138 143 152 167 168 158 160 157 150 145 150 135 132 129 135
289 249 267 278 297 284 263 270 261 248 271 259 264 266 264 261 263 205 186 237 284 299 155 149 163 168 169 180 177 171 193 186 177 167 165 159 138 140 149 140 135 132 140 122
351 277 294 296 287 326 352 344 306 297 294 280 288 286 345 334 279 250 211 243 267 255 253 178 152 156 183 220 194 184 179 176 161 148 140 138 148 146 137 137 132 130 129 124
283 256 255 273 285 300 290 292 286 284 280 281 268 281 286 268 262 263 260 266 261 240 223 215 195 182 163 176 210 219 172 154 154 144 151 149 149 150 144 141 135 137 138 139
287 258 266 278 278 278 273 274 279 274 274 272 278 278 267 259 253 257 267 271 237 224 225 218 221 198 175 174 199 206 184 160 156 152 151 156 142 141 135 138 138 135 144 143
235 278 282 267 272 267 274 273 262 269 271 266 266 268 264 276 275 257 254 261 231 227 216 226 222 196 177 176 180 173 169 168 164 164 151 148 136 137 139 141 137 132 125 133
270 265 273 278 280 305 276 257 256 256 266 262 261 261 277 285 271 264 269 255 234 202 203 228 202 232 195 185 193 190 179 164 164 154 151 150 142 141 147 135 130 124 134 135
268 269 267 272 298 270 268 249 253 272 276 271 262 263 267 265 270 230 251 224 214 224 121 189 282 303 282 191 183 179 163 168 161 151 154 150 146 141 145 142 142 149 146 136
227 267 259 253 254 277 287 325 336 300 299 289 270 277 285 165 189 280 281 337 17 18 2 357 344 234 290 178 164 159 164 163 160 163 159 157 155 147 151 154 148 145 142 136
327 208 233 303 280 279 45 348 335 292 298 6 317 290 223 206 57 273 246 290 4 2 331 329 331 329 164 144 146 154 160 163 171 165 159 158 151 153 159 146 146 143 143 143
320 309 235 278 280 270 25 341 326 232 357 328 328 342 353 327 231 283 201 287 334 316 326 344 357 327 321 133 144 153 154 168 157 156 151 149 147 150 140 137 137 145 146 142
285 309 306 305 299 282 354 338 356 315 293 304 315 298 313 302 314 298 284 295 306 305 313 1 64 42 112 141 146 153 160 154 143 141 143 144 143 139 136 133 143 147 144 149
268 182 226 231 259 297 300 286 287 289 308 310 291 302 272 280 279 282 281 264 264 265 294 349 121 127 143 168 160 158 153 145 144 143 147 142 137 139 139 145 148 146 156 155
269 278 259 313 272 278 288 290 281 301 321 317 290 275 262 268 275 266 261 255 243 247 272 166 146 156 143 147 137 153 150 147 143 146 144 144 140 142 145 145 154 158 160 158
255 291 266 267 281 297 279 303 318 319 321 317 321 299 287 261 268 239 266 268 254 237 248 179 180 170 151 150 135 149 152 148 144 141 143 144 141 140 144 154 160 163 171 166
220 223 260 278 290 292 291 301 305 306 309 311 308 302 296 243 256 275 268 252 241 232 222 214 182 157 153 146 142 155 152 147 143 140 142 143 143 146 147 149 148 161 157 170